Theta_e
346 345 345 344 344 344 344 345 345 344 343 342 342 342 342 343 343 343 342 341 340 340 339 338 338 337 337 337 336 335 334 333 332 330 330 329 329 328 328 326 325 326 325 324 323 323 323 324 323 322 320 318 317 316 315 315 315 314 314 314 314 314 314 313 313 314 313 311 308 306 304 304 303 303 303 303 303 302 302 302 303 302 302 302 302
346 345 344 344 344 344 345 345 345 344 343 342 342 342 342 342 342 343 343 341 340 339 339 338 337 337 337 336 335 335 334 333 331 330 329 328 328 327 326 325 324 324 324 323 321 321 321 321 320 319 317 315 315 315 314 314 313 312 313 313 312 313 313 311 311 314 313 310 307 306 305 304 304 304 303 303 303 302 302 302 303 302 302 302 302
345 344 345 344 344 344 345 345 345 344 343 342 342 341 341 342 342 342 342 341 339 339 338 338 337 337 336 336 335 334 333 332 330 329 329 328 327 326 325 324 323 323 322 321 320 320 320 319 318 317 315 315 315 314 313 313 311 311 311 311 311 312 312 311 311 313 313 310 307 306 306 305 305 304 302 302 302 302 302 302 302 302 302 302 302
345 345 344 344 344 344 345 345 344 344 343 342 342 341 341 341 341 341 341 340 339 339 338 338 337 337 336 335 335 334 332 331 330 329 329 328 327 326 325 323 322 322 321 320 319 318 319 318 317 316 314 314 315 313 312 312 310 310 310 310 311 312 312 311 312 312 311 310 308 306 306 306 305 304 302 302 302 303 302 303 302 302 302 302 302
346 344 343 344 344 344 344 345 344 344 343 342 341 341 341 341 341 341 341 340 339 338 338 337 336 336 335 335 335 333 331 330 329 328 327 327 326 325 324 322 321 320 319 318 317 317 317 317 316 315 314 314 314 312 311 310 309 309 309 309 310 312 311 311 311 310 309 309 308 307 306 306 304 303 302 302 303 303 303 303 303 303 303 303 303
346 344 343 343 343 343 344 345 344 343 343 342 341 340 341 341 340 340 340 339 338 338 337 336 335 335 335 334 334 333 331 329 328 327 326 325 325 324 322 321 320 318 317 317 316 316 316 316 315 314 313 314 313 311 310 309 308 309 309 308 310 311 310 309 309 309 308 308 308 307 306 305 304 303 302 301 303 303 303 304 304 304 304 304 303
345 344 344 343 343 343 344 344 344 343 342 342 341 340 340 340 340 340 339 339 338 337 337 335 334 335 335 334 334 333 331 330 328 326 325 324 324 323 321 319 318 317 316 316 315 315 315 315 315 314 313 313 312 311 310 308 308 309 309 309 309 308 307 307 308 308 308 308 308 307 306 305 304 304 303 302 302 303 303 303 304 304 304 304 303
344 343 343 343 343 342 343 344 343 342 342 341 340 340 340 340 339 339 339 338 338 337 336 335 334 334 334 333 333 332 330 329 327 326 324 324 323 322 320 319 317 316 315 315 315 314 314 314 314 313 312 312 311 310 308 307 308 309 310 308 307 306 307 307 307 307 307 307 307 306 305 305 303 304 304 303 302 304 304 303 303 303 304 303 304
344 343 342 343 343 342 343 343 342 342 341 341 340 339 339 339 339 338 338 338 337 337 335 334 333 333 332 332 331 330 329 328 326 325 324 323 322 321 320 318 317 316 315 314 314 314 314 314 313 312 311 310 309 308 307 307 308 309 307 305 305 306 307 307 306 306 306 306 306 305 305 304 304 304 304 304 304 305 305 304 303 304 304 303 304
343 343 342 343 343 342 343 343 341 341 341 340 339 339 339 339 338 338 338 337 337 336 335 333 333 332 330 329 329 328 327 327 325 324 323 323 322 320 319 318 317 315 314 314 314 313 313 313 312 311 309 308 306 305 304 304 304 305 305 304 305 306 307 306 306 305 305 305 305 305 304 304 304 304 305 305 305 305 304 304 305 305 304 304 304
343 343 343 343 343 343 343 342 341 340 340 339 339 338 338 338 338 338 337 336 336 336 334 333 332 331 330 328 328 327 326 326 325 324 324 322 321 320 319 318 316 315 314 313 313 313 312 312 311 308 306 305 303 302 301 300 300 301 302 304 305 306 306 306 305 305 305 305 305 304 303 304 304 304 304 305 305 304 304 304 304 304 304 304 304
344 343 343 342 342 343 342 341 341 340 339 339 338 338 338 338 338 338 337 336 336 335 334 332 331 330 329 328 327 326 326 327 328 326 324 322 320 319 319 318 316 314 314 313 312 312 312 311 311 308 305 305 303 302 301 300 299 300 300 300 301 302 305 306 306 305 305 304 304 304 303 303 305 305 304 304 305 304 304 304 304 305 304 304 304
343 343 343 342 342 343 341 340 340 339 339 339 338 337 338 337 338 338 337 336 336 334 333 331 330 329 328 327 327 326 326 328 329 327 324 323 320 318 318 317 315 314 313 312 312 312 311 311 310 309 306 305 304 303 302 300 300 300 300 299 298 299 301 303 304 305 305 304 304 304 303 303 305 305 304 304 304 304 304 304 305 305 305 305 305
343 343 342 342 343 342 341 340 339 339 339 338 337 337 337 338 338 337 336 335 334 333 332 331 329 329 328 328 327 327 326 327 328 327 324 322 319 318 318 316 315 314 313 312 312 311 311 311 310 309 308 305 305 306 304 302 301 301 301 301 300 299 299 299 300 301 302 303 304 303 303 303 304 305 305 304 304 303 304 305 305 305 305 304 304
343 343 342 343 342 342 341 340 339 339 338 337 337 337 338 338 338 337 336 335 334 333 332 330 329 328 328 328 328 326 325 327 328 327 324 322 319 317 317 316 314 313 312 312 312 311 311 310 309 310 310 307 305 306 306 304 304 304 303 304 303 302 301 299 299 298 298 300 302 303 303 304 303 305 305 304 303 303 304 304 304 303 303 303 303
342 343 342 342 342 341 341 340 339 338 337 337 337 337 338 338 337 336 335 334 334 333 331 329 328 328 328 328 328 325 325 327 329 327 324 322 319 316 315 315 314 313 312 311 311 311 310 310 309 310 310 308 306 306 306 305 306 306 305 305 304 304 303 301 299 298 297 299 302 303 303 303 303 304 305 303 303 303 304 303 302 302 303 304 304
342 342 342 342 342 341 341 340 339 337 337 336 337 337 338 337 337 335 334 334 334 333 331 328 327 328 327 327 327 325 324 326 328 327 324 322 317 314 315 315 313 312 312 311 311 311 310 309 309 310 311 309 306 304 303 305 307 307 306 306 305 305 305 302 298 296 295 298 300 301 302 302 300 301 302 301 300 301 302 302 303 303 304 305 305
341 342 342 342 342 341 340 339 338 337 336 336 337 337 337 337 336 335 334 334 334 332 330 328 327 327 327 327 327 326 324 326 328 327 324 321 317 314 314 314 312 312 312 311 310 310 309 309 310 311 310 308 305 302 301 303 306 306 306 306 306 305 305 303 299 295 294 296 298 299 300 300 299 298 298 298 298 298 299 300 302 303 304 305 304
341 341 341 342 341 340 339 339 338 337 336 336 337 337 336 336 336 335 334 334 334 333 331 328 326 326 327 327 327 326 325 327 328 327 324 321 316 314 314 314 312 312 311 310 310 310 310 310 310 309 308 306 304 302 300 301 304 306 306 306 307 305 304 304 301 298 297 298 299 300 300 300 300 299 298 298 298 297 298 299 301 302 303 304 304
341 341 341 341 341 340 339 338 338 338 337 337 336 336 336 336 336 335 334 333 334 333 331 328 325 326 326 326 326 325 325 326 327 325 324 321 316 314 314 313 312 312 311 310 310 310 310 310 308 306 305 305 302 300 299 300 302 306 306 306 306 306 304 304 303 301 301 301 302 303 303 303 303 302 302 301 300 299 298 298 300 302 303 303 303
341 341 341 341 340 339 339 338 338 337 337 336 335 335 336 336 336 335 334 333 334 333 331 329 327 326 325 324 324 324 324 325 325 324 322 320 316 313 313 313 312 311 311 310 310 310 310 309 307 304 303 302 299 299 300 300 300 304 307 306 306 305 303 303 303 302 302 303 304 304 305 305 305 305 304 304 303 302 300 299 299 301 302 303 303
341 341 340 340 340 339 339 338 338 337 336 336 336 335 335 336 336 335 334 334 333 332 330 328 328 327 324 322 323 322 321 323 325 324 322 319 315 312 313 313 312 311 311 310 309 309 309 309 308 305 302 299 298 299 301 300 299 302 305 306 305 303 302 303 304 303 301 302 303 303 303 304 304 304 304 303 302 301 301 301 301 302 302 302 303
341 340 340 340 340 340 339 338 337 338 337 336 336 336 336 337 337 336 335 334 332 330 328 326 326 327 324 321 321 320 319 321 323 323 321 318 314 312 312 312 312 311 311 310 309 309 309 309 309 306 301 299 299 300 301 301 299 301 303 304 304 302 301 302 303 302 301 301 301 302 303 303 303 303 303 302 301 300 300 302 302 303 303 303 302
340 341 340 340 340 340 340 339 338 338 337 337 337 337 337 337 336 335 335 334 331 329 326 325 325 324 322 320 319 318 317 318 319 320 320 318 314 311 310 311 310 309 308 307 307 307 308 309 308 306 302 301 300 301 301 302 301 301 301 302 302 300 299 300 301 301 302 302 301 302 303 302 302 302 302 303 302 300 300 302 303 303 303 303 303
341 341 340 341 341 341 340 339 339 339 338 337 337 337 337 336 335 333 333 332 330 328 326 324 323 322 320 319 317 316 316 316 315 317 319 318 315 311 309 309 308 307 306 305 304 305 307 308 307 305 303 302 301 301 302 302 302 301 301 301 300 298 298 299 300 301 302 302 302 302 302 301 301 301 302 303 302 300 300 302 302 302 303 303 303
341 341 341 341 341 340 340 339 339 339 339 337 336 336 335 334 333 332 331 331 329 327 325 324 323 321 319 317 316 315 314 313 313 314 315 315 313 310 308 307 307 306 306 304 304 305 307 307 306 304 304 303 302 302 302 302 302 301 301 300 298 297 297 299 300 301 302 302 302 302 301 300 301 301 301 301 300 299 299 299 300 301 302 303 303
340 340 340 340 339 339 340 339 338 338 337 336 335 334 333 332 331 329 328 328 326 325 324 323 323 321 319 317 316 314 312 311 311 312 312 312 311 308 307 306 306 306 305 305 306 308 308 307 305 304 304 303 303 302 302 302 302 301 300 299 297 296 297 299 299 300 302 303 303 302 302 302 302 301 301 300 299 298 297 297 298 300 301 302 303
338 338 338 338 337 338 338 337 336 336 335 334 334 332 330 330 329 328 327 327 326 325 323 321 321 321 320 318 315 314 311 309 310 312 313 313 310 307 306 306 306 306 306 306 308 308 307 305 304 304 303 303 302 302 303 303 302 301 300 299 297 296 297 298 299 301 303 304 304 304 303 303 302 302 301 300 298 297 297 297 299 300 300 301 302
337 337 337 337 336 336 337 336 335 334 334 333 332 331 330 329 329 328 327 327 327 326 324 322 321 321 321 319 316 313 311 310 311 315 317 315 312 308 306 306 306 306 306 307 308 307 306 304 304 304 303 303 303 303 304 304 303 302 301 301 299 298 298 300 301 302 303 304 304 304 303 303 302 301 300 298 297 298 298 298 299 300 300 301 301
335 335 336 336 335 335 335 334 334 334 333 332 331 330 330 329 329 328 328 327 327 326 325 324 323 322 321 320 318 316 314 313 313 315 316 316 314 311 308 307 306 306 306 306 306 307 306 306 305 305 305 305 305 305 305 304 304 303 303 302 301 301 301 302 303 303 303 303 303 303 303 302 301 300 299 299 298 298 299 299 299 300 300 301 301
333 333 334 334 333 333 333 332 332 332 331 331 330 328 327 326 326 327 326 326 326 325 324 323 324 322 320 319 318 317 316 314 314 315 316 317 316 312 309 309 307 306 306 306 306 306 307 307 307 307 307 306 306 305 305 304 304 304 303 303 303 303 303 303 304 304 303 302 302 303 303 302 302 301 301 300 300 300 300 299 300 300 300 300 301
331 332 332 331 330 329 329 330 330 330 329 329 328 327 325 323 322 322 323 323 323 323 322 322 322 321 319 318 317 316 314 313 315 316 317 318 316 312 310 311 309 307 306 306 306 306 307 307 308 307 307 307 306 305 305 305 305 304 304 304 304 304 304 304 304 303 303 302 302 302 303 303 302 302 302 301 301 301 301 300 300 300 299 299 300
329 329 329 329 329 328 327 327 327 327 327 326 326 326 325 323 320 317 317 319 320 320 320 320 320 319 318 317 317 316 314 313 314 316 317 317 315 311 310 311 309 307 306 305 305 306 307 308 308 308 308 307 307 306 306 306 306 306 305 305 305 304 304 303 303 303 303 303 303 302 302 302 303 303 302 302 301 301 301 300 300 299 299 300 300
326 326 326 327 327 327 327 326 326 326 325 324 324 324 324 323 319 315 313 314 314 315 316 317 317 317 317 316 315 315 314 313 314 316 318 318 314 311 310 309 307 305 305 305 305 307 308 308 308 309 308 308 308 307 307 307 307 307 307 306 306 305 305 304 303 303 303 303 303 303 303 303 303 303 303 303 302 302 301 301 300 299 299 299 300
324 324 323 323 324 326 326 325 326 325 324 323 323 323 323 321 318 315 314 313 312 312 313 314 315 315 315 315 314 314 314 314 314 315 317 316 312 309 308 306 303 303 304 306 307 307 308 308 309 309 309 309 308 308 307 307 308 308 307 307 306 306 305 305 304 304 304 304 304 303 303 303 303 303 304 304 303 302 302 301 301 300 299 299 299
323 323 322 322 322 323 323 324 324 324 323 322 322 322 321 319 316 314 314 314 313 312 311 312 313 313 314 314 315 314 314 315 314 314 313 311 309 308 306 305 304 304 304 306 307 308 308 308 308 308 309 309 308 307 307 308 308 308 308 308 307 307 306 305 305 304 304 304 304 304 303 303 303 304 304 304 304 303 302 302 302 301 300 298 299
321 320 320 321 321 321 321 322 322 322 321 320 320 319 318 316 314 314 314 314 314 312 310 310 310 310 310 311 313 313 313 312 312 311 310 308 307 306 306 306 306 306 306 306 307 307 307 308 308 308 308 308 308 308 308 308 309 309 309 308 308 307 306 305 305 305 305 304 304 304 304 303 303 303 303 303 303 303 303 303 302 302 300 299 299
317 316 317 318 319 320 320 320 319 319 319 318 318 318 316 315 315 315 314 314 313 312 310 310 309 308 308 309 310 310 310 308 307 306 306 305 304 305 306 307 307 307 306 306 306 306 307 308 308 308 308 308 307 307 308 308 309 309 309 309 308 307 306 305 305 305 305 304 304 304 304 304 303 303 303 303 302 303 302 302 302 302 301 300 299
316 315 315 315 316 317 318 317 317 316 317 317 317 316 315 314 314 315 314 313 311 310 310 309 309 309 309 308 307 307 307 305 303 302 302 301 302 304 306 307 307 307 307 307 306 306 307 308 308 308 307 307 307 307 308 309 309 309 309 309 308 307 306 305 305 305 304 304 303 303 303 303 303 302 302 302 302 302 302 301 301 301 301 299 299
316 315 314 314 315 315 315 315 316 315 315 315 315 314 313 313 313 314 314 312 311 310 309 309 309 310 310 309 309 308 307 305 305 304 302 302 302 304 306 308 308 308 308 307 307 306 307 308 308 307 307 307 307 307 308 309 309 309 309 308 307 306 305 305 304 304 304 303 303 303 303 302 302 302 301 301 301 301 301 301 301 301 300 299 298
317 315 314 314 314 314 314 314 314 314 313 313 313 313 312 312 312 312 312 311 310 310 310 310 310 309 309 310 310 309 308 307 307 306 304 303 303 305 307 309 309 308 308 308 308 307 307 308 309 308 308 308 308 308 308 309 309 308 308 308 307 306 305 304 304 303 303 303 302 302 302 302 301 301 301 300 300 300 301 301 300 300 299 299 298
317 316 315 314 314 314 314 313 312 312 312 312 312 312 311 311 311 311 310 310 310 309 309 309 309 309 309 310 311 309 308 308 308 307 306 305 305 306 307 308 308 308 308 308 309 309 309 309 310 309 308 308 308 308 308 308 308 308 307 307 306 305 304 304 303 303 302 302 301 301 301 301 300 300 300 300 300 300 300 300 299 299 298 298 298
316 315 315 315 314 314 314 313 313 312 311 311 311 311 311 311 310 310 310 309 309 309 309 309 308 308 308 309 310 309 308 308 309 309 308 306 306 307 308 307 307 308 308 308 309 309 309 309 309 309 309 308 307 307 307 306 306 306 306 306 305 304 303 303 303 302 301 301 301 300 300 300 300 300 299 299 299 299 299 299 299 298 298 298 298
317 316 316 315 314 314 313 313 312 312 311 310 310 309 309 309 309 309 309 309 309 310 310 309 308 308 308 308 308 308 309 309 309 308 307 306 307 308 309 309 308 308 308 308 308 308 308 308 308 309 309 307 306 306 306 305 305 305 305 305 304 303 302 302 302 301 300 300 300 300 299 299 299 299 299 298 298 298 298 298 298 298 298 298 298
317 316 316 315 314 313 312 311 311 311 311 311 311 311 310 310 309 309 309 309 309 309 310 308 307 308 308 308 307 307 308 308 308 307 307 307 307 307 308 308 308 307 307 307 307 307 308 308 308 308 307 306 305 305 305 305 304 304 304 304 303 302 301 301 301 301 300 299 299 299 299 298 298 298 298 298 298 298 298 298 298 297 297 298 298
316 316 315 315 314 313 312 311 311 311 311 312 312 312 311 311 309 309 309 309 309 309 309 309 308 307 307 306 306 305 306 307 307 307 307 307 306 306 306 306 306 307 307 307 307 306 307 308 307 306 306 305 305 305 305 305 305 304 304 304 303 302 301 301 301 301 299 298 298 298 298 297 297 297 297 298 298 298 297 298 297 297 297 297 298
314 313 313 313 312 312 311 311 311 312 312 312 311 311 311 310 309 309 308 308 308 308 308 308 308 308 307 306 306 306 306 306 306 306 306 307 307 307 307 306 306 306 306 307 307 306 306 306 306 305 304 304 305 305 305 305 304 304 304 303 302 301 301 301 301 301 299 298 297 297 297 297 297 297 297 297 297 296 297 297 297 297 297 297 297
307 308 307 308 309 309 309 310 310 311 311 310 310 310 310 310 310 310 309 309 308 308 309 309 309 308 308 307 307 307 307 307 306 306 306 306 307 307 307 306 305 304 304 305 306 306 305 305 305 305 304 304 304 304 304 304 304 303 303 302 301 301 301 301 301 300 299 298 296 295 295 296 297 297 297 296 295 295 295 296 296 297 297 297 297
301 301 301 301 303 304 305 306 307 308 309 309 310 309 309 309 310 310 310 310 309 310 311 311 311 310 310 309 308 308 308 307 307 307 306 306 306 306 306 305 305 304 304 305 305 304 304 304 305 305 305 304 304 303 303 303 302 302 301 301 301 301 301 300 300 300 299 298 297 295 294 295 296 297 296 296 295 295 295 295 296 296 296 297 297
297 297 297 297 298 298 299 300 301 302 304 306 307 307 307 308 309 310 310 310 309 309 310 311 311 311 311 311 311 310 309 309 308 308 308 307 307 307 306 306 306 305 305 305 304 304 304 304 303 303 303 303 302 302 302 302 301 301 301 302 302 302 301 300 300 299 299 298 297 295 295 296 296 296 296 296 296 295 294 295 296 297 297 297 297
296 295 295 295 295 294 295 295 296 296 297 299 301 302 302 303 305 306 307 308 309 309 309 310 311 311 311 311 311 311 311 310 310 309 309 308 308 308 307 307 307 306 306 305 305 304 304 304 304 304 303 302 301 301 300 300 301 302 303 303 302 301 301 301 300 299 298 298 297 296 296 296 296 296 295 295 296 296 296 296 297 297 298 298 298
Wind_Speed
31 30 29 30 32 31 31 32 31 29 29 30 31 32 30 28 25 23 24 24 23 21 21 22 22 22 21 19 19 19 19 20 20 18 16 16 15 14 14 15 14 14 14 13 14 13 13 14 13 12 12 11 10 10 10 10 10 10 10 9 10 10 9 10 8 5 6 6 7 8 8 8 7 6 6 5 5 5 4 4 5 6 5 5 7
30 29 29 31 33 32 32 32 33 31 30 29 31 32 30 29 26 24 23 23 23 22 21 22 22 22 21 20 20 20 20 20 20 19 17 16 16 15 14 14 14 14 14 13 13 13 13 13 13 12 11 11 10 10 10 10 10 10 10 9 9 9 9 10 10 7 7 7 8 8 8 8 7 6 6 6 5 5 6 5 5 6 5 5 5
30 28 28 30 33 32 31 33 34 32 29 29 33 33 30 29 28 26 24 23 23 23 21 21 22 22 22 21 21 21 20 20 20 19 18 17 16 15 15 15 15 14 14 14 13 14 14 14 13 12 12 11 10 10 9 9 9 9 9 8 8 8 9 10 9 7 7 8 9 8 8 9 8 6 6 6 5 5 6 5 5 5 5 5 5
27 27 28 30 32 32 32 33 33 32 31 31 33 33 30 29 29 27 24 23 23 23 22 21 22 22 22 22 21 21 20 19 19 19 18 17 17 15 15 15 15 15 14 14 14 14 15 15 14 13 13 12 11 10 9 8 8 8 8 8 8 8 9 9 8 7 7 8 9 9 9 8 8 7 6 6 6 6 5 5 5 5 5 5 6
26 27 28 29 32 33 33 32 32 34 34 32 33 34 31 29 29 27 25 24 23 24 23 22 22 23 22 22 22 22 21 20 20 19 18 17 16 15 15 15 15 15 14 14 14 15 15 15 14 14 14 13 12 11 10 10 9 8 9 9 9 9 9 9 9 9 8 8 8 9 8 8 7 7 6 6 6 6 6 5 5 5 5 6 7
26 26 27 29 32 34 33 32 34 36 33 32 34 35 31 30 30 27 26 26 24 23 24 23 23 23 22 22 22 22 21 20 20 20 19 18 16 15 14 15 14 14 14 14 14 15 15 15 14 14 14 14 12 11 11 11 10 9 9 9 9 10 10 9 10 10 9 8 9 9 8 8 7 6 6 6 5 5 6 5 5 6 5 5 6
26 26 27 29 31 34 34 34 35 34 33 33 34 34 33 32 32 28 26 27 26 24 24 24 24 24 23 22 22 22 22 21 20 20 19 18 17 16 15 15 14 14 14 14 14 15 15 15 15 15 15 14 13 12 12 12 11 10 10 10 10 11 10 10 10 10 9 9 9 9 9 8 7 6 6 5 5 5 5 5 6 5 5 5 7
27 26 28 30 32 34 34 34 35 34 33 34 34 34 34 34 33 29 27 28 27 26 25 24 24 24 22 22 22 21 22 21 20 20 20 18 17 16 16 15 14 14 14 14 14 15 15 15 15 15 15 14 14 13 13 13 11 11 11 11 11 11 10 10 10 10 10 9 9 8 8 8 7 6 5 5 6 6 4 4 6 6 6 6 7
27 26 27 31 33 33 31 33 35 33 32 35 35 35 34 34 33 30 28 29 28 26 25 24 25 25 22 21 21 21 21 21 21 22 21 19 18 17 16 16 15 15 14 14 14 15 15 15 14 15 15 15 15 15 14 14 12 12 12 11 11 11 10 10 10 10 10 10 9 8 8 7 7 7 7 6 6 4 3 4 6 7 7 8 7
27 27 29 31 33 32 29 31 36 34 32 35 36 35 34 34 33 30 29 29 27 26 26 24 25 26 23 22 22 22 21 21 23 25 23 20 18 17 17 16 16 16 15 15 15 15 15 14 14 16 17 17 18 17 16 16 14 12 12 12 12 11 10 10 10 10 10 10 9 8 8 7 7 8 7 6 5 4 4 5 6 6 6 8 7
27 29 30 30 31 31 29 31 37 35 34 36 36 34 33 33 32 31 30 30 27 26 26 25 24 25 24 23 24 24 24 24 26 28 27 23 20 17 17 17 17 16 16 17 16 16 16 15 14 18 19 18 18 17 16 16 15 14 14 14 14 13 11 10 11 10 10 9 8 8 8 7 7 7 7 6 6 5 5 5 6 7 7 7 7
28 29 29 29 29 29 30 34 37 36 37 38 36 34 34 33 31 32 31 29 28 27 27 25 24 25 25 24 24 24 26 27 29 30 28 26 23 18 17 17 17 17 17 17 17 17 17 16 15 16 18 18 19 18 18 17 16 15 15 15 16 16 15 13 11 9 9 9 8 8 8 7 7 7 7 6 6 5 5 6 6 7 7 7 8
28 27 27 28 29 30 31 34 36 36 37 37 35 35 35 33 30 31 30 28 27 28 27 24 24 27 29 26 25 26 27 28 30 30 28 27 26 21 16 17 18 18 18 18 18 18 18 17 16 16 18 20 20 18 19 19 17 17 16 13 15 18 18 16 13 10 9 8 8 8 8 7 7 7 7 6 5 5 6 7 7 7 8 8 8
26 26 27 29 30 30 32 35 35 34 34 36 34 33 32 29 28 29 28 26 26 26 26 24 25 30 32 30 28 29 29 29 31 31 29 28 27 23 17 16 18 17 18 18 18 18 19 19 18 17 19 22 21 18 18 19 18 19 16 12 13 17 18 17 16 14 11 8 7 7 7 6 6 6 6 7 6 5 6 6 7 7 9 10 11
24 26 27 29 29 29 32 34 33 30 33 36 33 30 30 28 27 27 26 25 25 25 24 23 25 29 33 34 32 28 28 30 30 30 30 28 28 24 17 16 18 17 18 18 18 18 19 19 19 18 19 22 21 20 19 18 18 17 14 12 12 14 15 16 16 16 13 10 7 6 6 7 6 6 6 7 6 6 6 7 8 9 11 12 12
25 26 29 30 30 31 32 31 29 28 31 32 29 28 31 29 28 29 27 24 23 23 23 23 27 32 34 35 33 25 25 30 30 30 31 29 29 25 17 16 17 17 17 19 17 18 18 19 19 19 19 21 23 24 21 18 16 16 14 13 12 12 13 15 17 17 15 13 11 9 9 10 10 10 10 9 7 5 6 8 9 10 12 12 11
27 29 30 30 30 31 31 29 29 29 28 27 27 28 29 28 28 28 26 25 24 24 23 22 27 33 35 36 33 24 25 32 32 31 33 32 30 26 18 16 18 17 17 18 17 17 18 19 19 19 19 20 24 27 24 19 16 15 14 14 13 12 12 14 19 20 18 16 15 13 12 12 12 14 14 13 11 8 7 8 9 10 11 11 10
29 29 31 30 28 30 30 29 29 28 26 27 28 29 29 29 28 25 25 26 25 24 22 20 23 31 35 38 37 29 28 35 34 32 34 34 33 27 20 18 19 17 17 17 17 17 18 20 20 18 18 20 23 26 26 21 16 15 14 14 14 13 13 13 17 19 19 18 17 15 14 13 13 14 15 15 14 13 11 11 10 11 11 11 11
29 30 31 31 30 31 31 30 29 28 28 30 31 32 32 30 28 26 26 27 25 24 23 21 25 32 36 38 38 33 32 36 36 34 34 36 34 27 20 19 19 18 18 18 18 17 17 21 23 19 17 19 22 24 25 22 17 14 15 15 14 14 14 14 15 17 18 17 16 15 15 14 14 15 15 15 16 16 15 14 13 13 13 12 12
28 29 29 29 31 32 30 30 30 29 29 31 33 35 35 31 29 28 27 26 25 25 24 23 26 32 35 36 35 32 33 37 37 36 35 37 35 27 20 19 20 19 19 18 18 18 17 19 24 22 19 20 21 21 22 22 18 15 15 15 14 13 14 14 14 15 15 15 14 13 13 13 13 14 14 15 16 17 18 18 16 15 14 14 13
25 27 28 28 30 30 28 29 29 28 29 32 35 36 34 30 28 27 24 25 26 25 24 24 24 26 29 32 33 32 34 37 37 36 36 37 37 30 21 20 21 20 20 19 18 18 17 17 21 25 24 21 19 20 21 21 20 16 14 15 14 13 12 13 14 15 14 13 13 13 12 12 12 13 13 14 15 15 17 18 18 17 16 15 14
24 26 27 27 28 28 28 28 28 28 30 33 33 32 31 30 29 27 25 26 27 25 23 24 24 23 23 28 33 33 33 35 36 37 38 37 39 34 23 20 22 21 19 19 18 17 17 16 18 24 26 21 19 21 21 20 20 18 15 14 15 14 13 11 12 14 15 14 13 13 12 12 12 13 13 14 13 13 13 15 16 17 17 16 15
24 25 26 26 27 28 28 28 28 29 31 33 32 32 33 32 31 29 30 29 27 24 24 24 24 22 20 23 27 28 30 33 35 38 39 38 39 36 27 22 24 23 19 19 17 15 15 15 16 21 24 22 20 22 21 20 20 19 17 16 17 16 14 12 11 13 14 14 14 13 12 12 12 13 13 13 13 12 13 13 14 16 16 16 16
22 23 23 24 26 28 28 30 30 30 31 33 34 33 33 33 31 29 31 31 27 24 24 25 25 22 18 17 20 23 28 32 33 36 38 38 38 38 32 28 28 27 23 22 19 15 13 14 16 20 22 21 20 21 22 22 21 19 18 19 18 16 15 13 13 12 13 13 14 13 13 13 13 13 13 12 11 11 11 12 13 14 15 15 16
19 20 20 22 23 25 26 28 29 27 28 31 33 32 31 32 30 28 28 28 24 21 21 22 23 22 17 15 18 23 27 30 31 33 37 38 37 37 36 32 29 27 25 24 23 19 16 16 18 20 20 20 20 21 22 23 22 18 17 19 18 15 14 14 14 13 13 13 13 13 13 13 13 13 13 12 11 10 10 11 13 14 15 16 16
15 17 17 18 19 22 23 24 25 24 25 29 31 29 28 29 27 23 23 23 18 16 17 19 20 19 16 14 19 24 27 28 30 33 36 37 36 37 37 33 28 25 24 23 22 19 18 19 20 19 19 20 21 23 23 23 21 19 18 18 17 15 15 15 15 14 14 14 13 13 12 12 13 13 12 11 12 12 13 13 14 15 15 15 16
12 13 13 13 14 17 20 20 20 20 21 25 27 23 21 23 22 18 17 17 15 15 17 19 20 19 17 17 22 27 27 28 31 35 38 38 37 38 38 34 29 26 24 22 19 17 18 19 19 18 18 20 22 23 22 21 21 21 19 18 17 16 16 16 16 15 15 14 13 13 12 12 11 11 11 12 13 14 14 14 15 15 14 14 14
9 9 11 11 11 14 16 15 15 14 15 18 21 19 18 18 18 18 20 20 20 21 20 19 21 20 19 21 25 26 25 28 34 39 41 41 41 41 39 35 32 29 26 22 18 15 17 18 17 16 17 19 20 19 18 17 18 19 18 17 17 17 17 16 16 16 16 14 14 13 11 11 11 12 12 12 13 13 14 14 15 15 14 14 14
8 9 11 12 12 13 15 16 17 16 15 16 19 22 23 22 21 21 24 27 28 25 22 24 27 24 22 27 30 27 26 32 38 42 43 43 43 43 40 37 35 31 28 24 19 15 16 17 16 16 16 16 17 17 16 16 16 16 17 17 17 17 18 18 18 18 17 15 14 13 11 11 12 12 12 13 13 13 13 14 14 14 14 14 15
6 8 10 11 12 13 15 18 20 20 20 21 22 23 26 28 26 24 25 30 33 29 25 29 35 31 28 33 36 33 33 37 39 41 44 43 41 42 42 39 36 32 30 27 21 16 15 16 16 17 17 17 17 17 17 16 16 16 18 19 19 18 19 19 19 19 18 16 15 14 13 13 13 12 12 12 12 13 13 14 14 13 14 14 15
3 5 7 7 8 11 14 17 19 19 20 22 23 22 22 23 25 27 26 27 32 33 28 28 32 32 31 34 35 33 33 34 35 40 44 42 40 41 40 38 37 35 34 32 24 17 16 17 17 18 18 18 18 18 17 17 17 17 18 19 20 20 20 20 19 17 16 16 17 16 15 14 13 13 13 12 12 12 12 13 13 14 14 15 15
0 2 4 4 6 8 9 11 13 14 15 17 19 19 19 17 17 21 21 20 24 30 29 27 28 29 28 29 31 31 30 28 31 38 43 44 43 42 39 37 37 35 34 31 25 18 17 18 17 18 18 18 18 18 17 17 17 18 18 19 20 21 21 20 20 18 17 17 18 18 17 15 14 14 13 12 12 12 12 12 12 12 14 15 15
4 3 2 3 4 5 6 7 8 9 12 14 16 17 18 15 13 13 15 15 17 23 26 26 26 26 24 25 29 31 30 28 29 35 42 45 44 42 38 36 35 34 33 30 23 18 18 19 18 18 18 18 18 18 18 17 17 17 18 19 20 21 21 21 22 21 20 19 18 17 17 17 16 15 14 14 13 13 12 12 12 13 14 14 14
5 4 4 4 4 5 5 6 8 9 11 14 16 17 16 14 12 13 13 13 14 17 19 21 22 23 24 25 27 29 28 26 26 31 39 42 42 41 38 34 31 31 31 28 21 18 19 19 18 18 19 19 19 19 18 18 18 17 18 19 19 19 19 20 22 22 21 19 19 18 17 17 17 17 16 16 15 15 14 14 13 13 14 14 14
5 5 6 6 5 5 5 6 8 10 11 13 15 16 14 12 13 16 16 15 16 18 18 19 21 22 23 25 24 24 24 23 23 28 34 37 39 40 36 28 25 25 26 24 21 20 20 19 18 18 18 18 19 19 18 18 18 18 18 18 18 18 18 19 21 22 21 20 20 19 18 18 18 18 18 17 17 16 15 15 14 13 13 14 14
7 7 7 6 4 4 4 5 7 9 10 11 13 14 13 13 15 17 17 16 17 18 19 21 22 21 22 24 22 20 19 18 19 24 29 33 37 38 32 25 22 22 22 22 21 20 19 18 18 18 18 18 18 19 19 19 19 19 19 18 18 18 18 19 20 21 21 21 20 19 18 19 19 19 18 18 18 18 17 16 14 12 12 14 15
10 9 8 7 6 4 3 4 6 8 9 10 11 10 10 12 15 16 15 15 16 18 19 22 22 21 20 21 20 18 17 17 18 22 25 29 34 34 27 21 20 21 20 20 19 18 18 18 18 18 19 18 18 19 20 20 20 20 20 20 19 18 18 18 19 19 20 20 20 19 19 19 19 18 18 18 18 18 18 16 14 13 13 14 15
11 11 10 8 6 5 3 3 5 6 7 8 9 9 10 12 14 15 16 16 17 17 18 20 22 22 22 22 21 20 20 20 20 22 23 26 31 30 23 18 19 19 18 19 19 18 18 18 18 18 19 19 19 19 21 21 21 21 21 21 19 18 18 18 19 19 18 19 19 19 19 19 18 18 18 18 18 18 17 16 15 14 14 15 15
12 11 10 9 6 5 4 2 1 3 5 7 8 10 11 12 12 14 15 16 18 18 18 19 20 21 22 24 24 23 22 21 21 23 25 27 30 28 21 18 18 18 16 17 19 19 18 18 18 18 19 19 19 20 21 21 20 20 21 21 19 18 18 19 19 19 19 18 18 18 19 18 18 18 19 19 19 18 18 16 16 15 14 15 15
11 10 10 9 6 5 4 2 2 2 5 7 8 10 12 13 12 13 14 15 17 18 19 19 20 19 21 24 26 25 23 19 18 20 22 23 23 22 18 16 16 17 15 16 17 18 19 19 18 18 19 19 19 20 21 21 20 19 19 19 18 18 18 19 19 19 18 18 18 18 18 18 18 18 19 19 19 19 18 17 17 16 15 16 16
11 9 9 8 7 6 6 5 3 3 5 7 8 10 12 12 12 13 14 14 14 15 15 16 17 18 20 24 26 24 21 18 16 17 18 19 20 19 17 14 14 15 16 16 16 17 18 18 18 18 18 19 20 20 20 20 20 19 19 19 18 18 18 18 18 19 18 17 18 18 18 19 18 18 19 19 18 18 18 17 16 16 16 16 17
12 10 10 9 8 7 7 7 6 5 6 9 10 9 10 11 11 12 13 12 11 13 14 14 14 15 18 22 25 22 17 15 16 16 16 19 22 22 19 16 13 13 14 15 15 15 16 17 17 18 17 17 18 19 19 19 19 18 18 18 18 18 18 17 17 18 19 18 18 18 19 18 18 18 18 18 17 18 18 17 16 16 16 16 17
12 11 10 10 9 9 8 8 7 6 6 7 8 8 9 11 12 12 13 12 9 10 12 12 11 13 15 18 22 21 15 12 13 14 13 16 22 25 25 23 20 17 16 15 14 14 15 15 15 16 16 17 17 16 16 17 17 17 17 18 17 17 18 16 16 17 18 18 17 18 19 19 18 17 18 17 17 17 17 17 17 16 16 16 16
12 12 12 12 12 11 10 9 8 7 7 7 8 8 9 11 12 12 13 14 12 9 10 11 10 12 14 16 18 19 15 10 10 12 14 16 20 24 26 27 26 24 22 19 17 15 14 14 14 14 15 17 19 18 17 17 18 18 17 17 16 16 17 17 16 15 17 17 17 17 18 19 19 18 17 17 18 18 17 16 17 17 17 17 17
14 13 13 12 13 13 12 10 10 9 8 7 7 7 8 9 9 9 10 12 11 9 9 9 9 10 13 15 18 20 18 13 10 11 12 14 17 20 23 24 25 26 26 24 22 18 15 14 15 14 14 16 17 18 17 17 17 17 16 16 15 15 16 19 18 16 16 18 18 16 17 19 21 20 18 17 17 18 18 17 17 17 17 17 17
16 15 15 14 14 13 12 11 10 10 9 8 8 7 8 8 8 8 7 7 7 6 7 8 7 8 10 12 14 16 17 14 11 9 10 10 11 14 16 18 21 24 26 26 25 22 18 15 14 14 16 17 17 16 16 15 15 15 15 14 14 14 14 16 17 18 19 21 20 17 17 19 21 21 20 18 17 17 18 18 17 17 18 17 17
17 17 17 17 16 15 13 12 11 11 10 10 10 10 10 10 9 9 7 6 5 5 6 6 6 7 8 9 9 11 12 11 9 8 7 8 8 9 10 12 14 17 19 21 22 22 22 20 16 14 16 18 16 14 14 14 14 14 14 14 15 16 15 15 16 19 22 23 23 20 18 17 17 18 19 19 18 16 16 17 18 18 18 17 17
19 19 18 18 19 18 18 18 17 15 13 12 11 11 11 11 11 9 7 7 6 5 5 5 5 5 5 6 6 7 8 9 9 9 8 8 8 8 9 9 9 10 13 16 17 19 22 23 22 20 20 21 20 17 15 14 14 15 16 18 20 21 20 18 17 18 20 22 23 22 20 18 16 15 16 18 19 18 16 16 17 18 18 17 17
24 23 22 21 21 21 21 22 21 19 18 16 14 13 12 11 11 9 7 7 7 5 4 5 5 4 4 3 3 3 4 6 7 8 9 9 10 10 11 11 11 11 12 14 15 16 18 20 21 21 22 23 23 20 17 17 18 19 20 21 23 24 23 22 20 20 21 23 23 23 22 20 18 16 15 16 18 19 18 16 15 16 17 17 18
23 24 24 23 22 21 22 22 22 22 21 20 18 16 16 14 12 11 9 9 8 7 7 6 5 4 3 2 2 2 2 3 3 4 5 6 7 9 11 11 12 12 12 13 14 15 16 16 17 18 19 20 21 21 21 22 22 22 21 23 24 24 23 22 21 21 22 23 23 23 22 20 18 17 16 15 15 17 18 17 15 15 16 16 16
20 21 22 22 23 23 23 23 22 22 23 22 20 19 19 18 16 14 13 13 11 9 8 7 5 4 4 3 2 1 1 1 1 1 2 3 4 5 7 8 9 11 12 13 14 14 14 14 15 16 17 19 21 22 23 22 22 22 23 23 23 23 22 21 21 22 23 23 21 20 19 18 17 17 17 16 15 16 18 19 17 16 17 17 16
Wind_Direction
197 199 200 204 206 205 205 205 204 201 198 198 199 200 202 203 200 194 196 200 199 198 201 203 204 204 202 199 197 197 196 198 200 197 197 200 201 205 207 206 208 210 209 207 207 210 211 213 213 209 209 208 207 206 206 208 210 214 222 221 224 228 224 236 242 180 137 155 170 171 180 191 206 218 224 232 244 268 267 247 262 278 287 285 264
196 198 201 204 204 204 205 203 202 201 197 196 200 202 202 202 201 197 194 195 198 200 200 202 204 204 203 200 200 201 200 199 200 197 197 198 198 200 203 205 208 208 206 204 204 205 205 209 208 201 200 202 202 204 204 205 209 213 219 220 222 223 214 223 232 197 158 166 176 181 193 206 216 212 214 231 239 258 267 260 265 271 274 290 279
197 197 199 202 204 205 204 203 204 201 195 197 201 201 200 199 199 199 195 193 197 200 200 200 201 201 201 200 201 203 202 198 197 198 198 198 197 200 203 206 208 206 205 205 202 199 200 203 201 192 190 194 198 204 203 203 210 212 210 210 212 210 203 211 217 197 176 177 184 195 200 205 217 212 206 223 236 255 267 264 268 273 266 276 280
196 196 199 202 203 205 204 204 205 202 198 200 201 200 199 197 196 197 197 195 195 197 198 197 197 197 197 198 201 202 200 196 197 198 199 199 199 202 204 206 208 207 207 205 200 196 196 198 196 190 190 194 196 201 201 198 202 200 193 194 196 192 190 195 197 193 192 187 191 204 201 196 210 213 210 223 230 241 257 261 268 274 267 277 281
193 196 199 202 205 206 204 204 205 203 201 201 200 198 197 194 194 196 197 198 195 192 194 195 196 197 196 197 202 203 199 195 196 197 197 198 200 203 205 205 206 206 206 202 198 195 194 195 194 190 191 195 196 198 195 190 189 188 187 187 187 182 177 178 183 192 200 196 193 197 194 193 203 208 216 233 237 238 241 241 259 270 270 285 286
192 194 197 201 206 207 203 202 205 204 201 199 198 197 196 193 194 194 195 198 197 193 192 193 196 199 198 198 201 203 200 197 197 197 196 197 199 201 202 203 203 203 201 199 196 194 193 194 193 192 193 194 194 191 184 182 184 184 184 182 176 169 167 172 183 192 199 199 190 189 193 196 201 208 217 230 243 252 252 251 257 256 257 284 292
192 194 197 202 206 208 204 202 204 204 201 199 196 196 195 193 194 194 194 197 199 197 194 192 196 200 200 199 201 203 203 200 197 196 195 195 197 198 199 199 199 199 197 196 194 193 193 194 193 192 194 194 190 185 180 180 182 180 177 173 166 162 167 178 186 191 197 196 189 190 194 194 201 215 212 213 235 246 255 265 269 261 263 285 289
192 194 199 205 209 210 206 203 203 203 200 198 195 194 194 194 194 194 194 196 198 199 197 193 195 199 199 197 199 200 200 199 196 194 194 193 194 195 196 196 195 195 194 193 193 192 192 193 193 193 194 192 187 184 182 180 178 175 171 167 165 168 176 183 186 188 192 194 194 193 191 190 200 211 204 212 235 235 232 259 282 281 279 285 280
191 193 199 206 210 209 205 201 201 201 198 197 196 194 193 194 194 195 195 195 196 199 199 194 193 197 195 192 194 195 195 197 196 193 191 190 192 193 193 194 194 192 191 190 190 190 191 192 193 192 191 190 187 184 183 180 175 172 171 170 173 180 184 185 186 189 191 195 197 193 191 195 201 206 208 216 230 233 228 252 275 279 281 288 281
190 193 200 206 208 207 202 198 199 199 196 195 194 193 192 191 193 195 194 194 196 198 199 195 193 195 192 188 191 193 193 197 198 197 194 189 189 190 191 192 193 191 189 189 188 189 191 190 190 192 193 193 194 192 189 186 181 175 175 178 182 186 188 188 191 194 196 198 197 193 197 205 204 206 212 216 220 237 246 252 269 280 282 286 282
190 194 200 204 204 203 197 194 198 199 196 194 193 191 190 189 193 195 194 195 197 198 198 195 192 193 191 190 191 194 197 202 205 205 203 197 190 188 189 189 190 191 190 188 187 187 188 187 189 196 199 198 199 196 193 192 187 183 183 185 186 187 187 190 196 199 201 202 198 197 204 208 205 206 212 213 216 229 244 255 271 283 283 285 291
190 195 200 201 200 195 190 193 198 199 196 196 194 190 188 189 193 195 195 196 197 198 198 194 188 188 190 190 192 196 200 208 213 211 208 205 197 189 189 189 188 190 191 190 188 187 186 185 186 193 195 194 194 193 193 192 188 187 191 194 195 193 188 189 194 198 205 207 200 200 209 210 204 205 208 210 217 226 241 255 265 276 281 283 286
190 194 198 199 197 192 188 193 197 196 195 195 191 187 188 191 195 198 198 197 197 199 199 191 185 191 194 192 195 201 204 210 214 211 208 207 202 194 191 191 189 190 190 190 190 188 185 184 182 183 188 190 188 187 191 193 191 193 197 201 203 198 193 193 194 193 197 207 209 208 211 213 209 206 204 205 217 232 243 256 265 272 279 282 286
188 193 195 196 195 191 188 191 194 193 193 192 188 187 190 194 197 198 197 196 196 200 198 189 188 198 201 198 200 206 210 213 214 210 206 206 204 198 195 193 191 191 191 190 191 189 186 184 182 180 184 188 186 183 186 189 192 196 199 203 205 202 199 200 201 200 198 203 215 215 210 214 215 205 196 196 210 233 248 267 279 282 286 289 290
188 192 193 193 191 188 187 190 192 189 189 189 188 188 190 192 194 195 196 198 199 202 200 190 190 200 204 203 204 206 210 215 215 210 205 205 203 200 196 193 192 191 191 192 192 191 188 186 185 182 182 186 187 184 181 181 186 192 196 201 203 202 204 204 204 205 206 209 220 220 210 211 208 198 193 197 212 235 252 267 279 283 285 286 283
188 189 192 192 190 189 190 190 187 183 184 185 185 188 190 192 194 196 199 201 200 202 201 194 196 202 204 203 203 203 208 214 214 210 206 204 201 198 194 194 193 191 192 193 192 192 191 189 188 187 183 184 189 187 180 177 184 189 193 197 197 197 204 209 206 202 201 204 208 206 203 202 200 197 196 197 204 226 254 265 268 269 272 278 280
187 187 192 192 189 188 190 187 183 180 178 179 182 187 190 193 195 197 199 201 200 201 201 198 201 204 203 202 201 200 207 212 212 209 206 202 197 194 193 193 193 191 192 192 192 194 194 192 191 188 183 186 194 194 187 181 185 191 193 193 195 195 199 210 212 206 201 203 205 207 210 213 214 213 212 215 218 227 253 265 266 268 269 275 283
189 190 193 190 184 185 187 184 179 175 174 178 182 184 186 190 194 196 199 202 201 201 201 198 201 204 204 204 203 200 206 212 211 206 205 202 195 191 191 191 190 190 190 190 192 195 196 195 193 189 185 192 199 198 194 191 190 194 195 192 195 198 196 202 208 207 208 211 214 218 223 226 228 226 227 233 235 237 247 255 266 277 275 276 286
191 192 192 187 182 184 185 182 179 177 179 181 182 181 184 189 194 195 199 202 201 201 201 200 201 203 204 206 205 202 206 213 211 205 203 201 195 190 190 189 187 188 189 189 191 194 194 196 197 194 190 197 202 200 198 198 196 197 198 196 199 203 200 197 197 198 203 211 217 224 228 230 235 234 236 242 242 241 244 247 257 269 272 277 284
191 190 187 183 182 184 184 183 183 182 182 182 183 183 186 191 195 196 199 202 201 199 201 204 204 203 204 206 204 203 207 212 210 204 202 200 194 189 190 190 186 187 189 188 190 192 191 196 201 199 195 200 205 201 199 198 196 197 201 201 204 207 201 198 196 193 198 206 213 221 226 227 230 231 234 239 241 245 247 246 248 254 263 274 277
186 183 181 181 183 185 186 185 184 184 184 184 185 187 190 193 196 198 200 204 204 202 203 206 207 203 202 205 204 203 206 211 208 202 201 200 194 189 191 193 189 187 189 188 188 190 189 190 198 201 201 204 205 199 198 197 195 199 204 205 208 206 198 197 197 196 200 206 210 218 222 220 221 221 223 229 234 240 246 245 242 244 252 263 269
181 180 182 183 184 186 187 185 185 186 187 186 186 188 192 193 194 197 202 205 205 204 202 204 205 203 203 208 208 205 206 210 209 203 200 200 196 192 192 196 191 185 185 186 186 189 190 188 195 202 204 205 201 197 197 198 198 202 207 210 211 204 196 197 198 198 205 212 214 221 223 221 222 222 223 227 230 231 235 237 237 239 244 252 259
185 185 185 185 185 186 187 185 186 189 189 189 190 192 196 197 196 199 203 202 199 198 198 197 198 198 198 202 206 204 203 208 211 205 199 198 198 195 194 196 192 184 178 179 179 183 190 192 197 202 203 202 200 198 199 202 205 207 209 212 215 208 200 204 207 204 208 214 218 223 223 221 225 227 226 229 232 232 233 235 237 239 242 247 251
188 187 188 189 190 191 191 189 191 193 193 193 195 198 200 200 199 200 202 199 194 194 196 193 191 191 186 182 189 196 200 206 210 205 198 196 197 197 198 201 200 194 188 186 183 185 194 198 202 206 206 203 202 202 203 207 212 214 212 215 220 216 208 213 217 212 211 214 217 221 222 223 228 233 233 233 235 237 236 236 238 240 243 247 251
189 189 191 194 194 194 192 192 194 197 195 196 200 202 201 200 200 202 202 200 195 194 195 192 191 192 186 173 177 189 197 203 205 202 198 197 196 198 203 206 205 201 198 194 191 194 202 205 208 211 210 207 205 206 208 211 216 220 219 218 220 217 211 214 217 214 214 217 218 221 225 229 232 235 237 235 233 235 236 238 242 244 246 249 253
190 192 192 192 193 190 188 190 197 200 197 197 200 203 203 203 204 204 203 201 196 192 192 192 192 192 187 179 182 188 195 200 199 197 196 196 196 199 204 206 204 203 200 193 190 197 205 207 210 213 211 207 206 208 211 214 217 220 220 217 215 212 209 211 213 215 218 219 219 222 226 230 232 233 232 230 231 236 240 243 246 246 244 246 250
185 191 190 185 190 194 192 192 199 201 198 197 199 199 200 201 201 196 194 194 191 192 194 192 192 192 187 183 187 190 192 194 194 193 193 194 195 199 203 203 201 200 197 191 189 197 201 203 208 211 210 207 207 209 212 215 217 219 216 213 211 209 208 210 213 219 222 220 220 224 225 226 229 227 224 227 235 240 240 241 245 246 245 247 252
169 188 194 187 189 200 201 195 192 192 192 194 195 193 190 192 195 197 197 196 195 198 197 191 191 194 189 183 184 185 186 189 192 193 192 192 195 197 199 200 199 196 194 191 188 191 196 199 199 198 199 200 201 204 208 210 212 213 210 206 207 208 209 212 217 221 224 223 224 226 224 224 228 229 231 236 240 240 238 237 240 245 246 249 253
173 193 204 200 195 199 201 198 195 197 197 195 196 199 201 202 202 204 207 207 205 200 196 196 200 198 191 189 188 183 185 194 198 197 194 193 194 195 195 196 196 194 192 189 181 177 185 191 187 183 186 191 194 199 204 204 203 203 202 204 207 208 208 212 216 219 222 223 224 225 224 228 233 234 237 240 239 237 237 236 238 241 244 248 252
192 210 219 215 204 199 201 203 204 205 204 201 200 203 208 211 211 210 213 216 213 208 206 210 211 205 198 199 200 197 198 202 202 198 196 195 197 198 198 197 196 193 191 189 183 177 182 187 186 186 189 192 194 198 201 200 200 200 201 204 207 208 209 213 217 219 219 218 221 225 227 231 235 234 235 237 235 236 236 236 237 241 243 246 249
182 218 232 231 216 206 207 208 206 206 206 203 200 198 202 208 212 213 216 219 217 215 216 219 219 214 206 200 200 203 206 206 202 198 198 198 200 201 201 200 199 197 195 191 186 183 187 191 192 193 195 197 198 199 199 201 203 203 203 204 207 209 212 215 215 213 212 215 223 228 228 228 230 232 234 235 236 238 237 234 235 239 242 245 249
93 220 228 236 231 222 215 210 208 208 207 203 200 197 195 196 203 210 215 219 218 217 218 219 221 220 212 202 199 203 207 208 205 201 199 200 200 200 200 201 201 200 198 193 188 188 194 197 197 197 199 202 203 201 202 205 206 206 206 207 207 209 211 212 212 213 216 223 227 228 227 227 229 232 235 236 236 240 241 239 239 241 243 245 249
359 334 296 270 255 239 220 209 209 206 199 197 198 199 197 194 192 193 198 202 205 209 213 216 216 215 211 207 208 209 207 207 207 203 200 201 201 199 199 201 201 199 197 192 190 195 199 199 200 201 203 206 206 203 204 208 209 210 211 211 211 211 211 213 216 221 225 228 227 225 225 226 228 231 235 236 236 238 240 245 248 248 248 248 248
356 333 315 302 283 260 234 218 215 208 200 199 201 201 202 198 186 175 174 172 170 178 193 204 207 206 205 206 208 209 207 207 208 204 202 202 201 197 196 197 198 199 198 194 194 201 203 202 204 205 206 208 208 205 207 212 214 215 216 216 217 217 214 213 217 222 224 224 226 227 226 225 227 230 233 235 236 236 238 242 246 249 251 252 251
2 340 325 312 289 265 245 227 219 212 205 202 204 205 203 193 180 178 179 170 157 159 173 186 193 198 202 202 204 206 206 207 208 206 203 201 198 194 191 188 187 193 199 201 203 205 205 205 207 208 208 208 206 206 210 215 217 218 218 218 220 220 217 214 215 218 220 222 225 226 225 225 229 232 233 234 234 234 236 239 242 246 252 255 253
12 0 349 341 322 281 247 230 223 216 206 199 200 201 194 180 175 178 179 173 167 168 173 177 180 188 197 201 201 202 201 201 202 201 201 200 195 190 185 183 184 190 197 203 206 206 206 206 208 210 211 209 204 205 211 215 218 220 221 220 222 222 220 216 215 216 218 221 223 223 223 226 230 232 233 233 233 235 236 236 236 241 250 255 256
18 10 2 354 344 321 272 240 228 218 205 194 191 188 179 173 172 171 170 174 176 174 169 167 167 172 183 191 194 193 193 194 195 196 199 199 194 189 186 187 190 192 195 200 201 202 204 208 210 211 212 209 206 209 214 218 221 224 224 224 224 225 223 219 217 216 217 219 221 223 224 225 227 228 231 232 232 234 235 232 232 240 247 250 253
27 16 5 353 341 333 310 259 226 207 192 183 180 179 175 175 174 171 170 175 176 173 168 166 166 168 172 176 181 184 183 182 182 184 188 190 191 191 192 193 194 195 197 198 198 199 204 209 211 211 211 209 208 212 217 221 223 224 224 224 224 223 221 219 217 217 217 219 222 224 223 223 224 226 228 229 230 232 231 227 229 239 244 243 243
29 20 13 4 353 344 338 308 196 162 156 161 169 174 173 174 175 175 174 172 171 170 168 167 169 171 170 170 172 173 172 171 172 174 178 183 188 192 195 197 197 198 198 195 195 198 203 207 208 209 209 209 210 213 218 222 221 220 222 223 222 219 216 214 215 217 218 219 221 222 222 224 225 225 226 227 228 229 229 227 228 233 240 244 244
28 26 24 25 22 13 13 33 86 123 144 154 162 166 169 172 176 177 175 170 169 171 170 167 167 170 172 173 172 170 168 171 176 177 177 182 188 194 196 197 195 194 193 193 195 198 202 206 208 208 210 212 213 214 216 218 218 217 219 219 217 215 213 212 213 215 217 219 221 222 224 226 226 224 225 226 227 228 228 227 228 230 236 242 245
30 28 27 32 41 43 42 50 69 100 137 151 157 161 167 171 172 171 170 167 164 166 167 164 164 171 178 180 179 175 172 174 177 177 178 182 186 190 195 197 195 193 192 192 194 197 202 208 211 211 212 212 212 212 214 216 217 217 216 215 214 213 211 210 211 212 215 216 218 221 224 224 223 222 224 225 226 227 227 227 228 230 232 234 236
31 29 26 29 39 52 57 59 66 89 125 141 147 151 155 157 156 158 159 158 158 162 162 160 166 177 184 185 184 180 177 181 183 182 188 195 197 198 200 200 197 195 196 197 198 202 207 211 212 212 212 211 210 213 215 215 215 215 215 214 211 209 208 210 210 210 212 215 217 219 221 220 220 223 225 225 224 225 226 227 228 229 231 230 228
34 29 29 31 35 46 58 62 64 69 86 106 121 131 139 142 147 152 150 146 148 155 153 151 163 177 183 187 187 182 178 184 189 188 194 204 208 210 211 210 207 207 209 210 209 209 212 215 216 217 215 211 210 214 215 213 213 216 216 214 210 205 207 211 212 209 212 216 217 217 217 217 219 221 221 220 220 222 224 226 225 225 227 227 225
41 34 33 35 35 39 46 53 62 68 69 80 97 110 120 128 135 140 139 136 136 138 136 138 153 167 171 179 186 185 181 184 194 199 207 216 219 220 222 223 222 223 224 222 217 213 215 220 223 224 220 214 213 216 217 214 215 217 216 214 209 204 205 211 212 209 210 214 216 215 216 216 216 216 216 215 216 219 222 223 221 220 222 224 225
38 36 36 39 38 38 39 43 55 66 67 71 84 90 90 98 106 112 122 131 134 133 130 131 139 155 165 174 185 191 193 194 197 204 215 222 225 228 230 232 231 230 231 230 228 224 223 227 227 222 214 210 212 216 218 217 217 219 217 213 209 206 211 219 219 212 211 216 217 213 212 214 214 215 215 215 215 217 219 220 217 216 218 221 224
31 34 36 36 36 37 36 38 46 56 59 60 66 68 65 71 81 89 103 123 131 129 130 132 135 146 160 171 183 192 196 198 199 204 208 211 218 227 233 235 236 238 239 240 238 235 231 229 224 217 214 214 214 215 217 216 216 217 215 210 207 208 215 222 221 215 217 223 222 214 210 216 219 219 218 217 217 217 218 217 217 216 217 220 224
29 32 33 33 33 32 30 29 34 42 49 53 56 57 57 59 65 74 83 97 109 118 129 141 149 155 158 163 174 186 193 197 200 204 208 211 217 225 229 229 232 238 244 246 246 241 234 229 224 221 223 223 219 214 215 216 214 210 207 206 211 214 216 216 216 217 222 227 227 221 216 217 219 218 215 214 215 218 217 217 218 219 218 218 221
31 31 30 30 32 30 29 30 33 35 37 40 45 51 57 59 59 62 66 73 84 102 122 133 138 146 152 159 172 188 198 204 206 205 205 208 212 216 218 215 213 224 241 249 250 244 239 236 235 234 233 232 227 220 215 213 212 212 213 217 222 224 221 216 215 217 222 226 228 226 221 216 215 215 212 210 213 218 220 218 218 219 218 219 222
38 37 34 31 29 27 28 32 35 35 35 38 41 46 51 53 54 55 56 59 65 73 87 99 103 107 116 130 150 177 199 214 221 220 218 218 219 222 227 230 231 238 250 256 254 247 241 240 240 240 239 238 236 230 222 220 224 227 228 229 230 230 227 224 223 223 226 228 227 225 221 216 214 215 213 210 212 217 220 221 221 221 220 220 223
36 38 36 33 30 27 28 31 32 32 33 36 39 41 42 42 44 46 46 44 45 46 49 58 68 72 81 102 127 156 186 210 225 228 227 228 230 231 235 240 242 244 247 252 253 249 244 241 241 239 236 234 232 229 226 228 230 231 230 230 230 230 229 227 225 225 227 228 225 220 217 214 211 212 214 212 212 216 218 219 220 222 223 222 220
33 34 34 34 33 30 30 31 31 30 31 33 34 36 37 36 36 37 37 36 35 35 37 40 44 42 35 25 15 10 351 294 270 252 239 237 236 239 243 245 246 246 245 246 248 249 248 246 246 243 238 232 230 229 229 230 229 228 228 230 232 231 229 225 222 223 224 224 220 217 214 212 210 212 213 214 215 218 221 221 221 222 227 229 225